Weather History for KCMA - January, 2013

Change the Weather History Date:

Thursday, January 24, 2013

  Actual Average Record
Temperature  
Mean Temperature 60 °F 54 °F  
Max Temperature 65 °F 66 °F 84 °F (1951)
Min Temperature 55 °F 43 °F 33 °F (1949)
Degree Days  
Heating Degree Days 5 11  
Month to date heating degree days 231 264  
Since 1 July heating degree days 777 945  
Cooling Degree Days 0 0  
Month to date cooling degree days 20 0  
Year to date cooling degree days 20 0  
Growing Degree Days 10 (Base 50)    
Moisture  
Dew Point 54 °F    
Average Humidity 77    
Maximum Humidity 87    
Minimum Humidity 67    
Precipitation  
Precipitation 0.64 in 0.08 in 1.92 in (1967)
Month to date precipitation 0.70 3.06  
Year to date precipitation 0.70 3.06  
Since 1 July precipitation 3.41  
Sea Level Pressure  
Sea Level Pressure 30.14 in    
Wind  
Wind Speed 9 mph (ENE)    
Max Wind Speed 23 mph    
Max Gust Speed 25 mph    
Visibility 8 miles    
Events Rain    
T = Trace of Precipitation, MM = Missing Value Source: NWS Daily Summary

Daily Weather History Graph

Daily Weather History Graph

Search for Another Location

Airport or City:

Trip Planner

Search our weather history database for the weather conditions in past years. The results will help you decide how hot, cold, wet, or windy it might be!

Date:

Astronomy

Jan. 24, 2013 Rise Set
Actual Time 6:58 AM PST 5:18 PM PST
Civil Twilight 6:31 AM PST 5:45 PM PST
Nautical Twilight 6:01 AM PST 6:16 PM PST
Astronomical Twilight 5:31 AM PST 6:45 PM PST
Moon 3:26 PM PST (1/24) 4:58 AM PST (1/24)
Length of Visible Light 11h 13m
Length of Day
10h 20m
Waxing Gibbous, 95% of the Moon is Illuminated
Jan 24
Waxing Gibbous
Jan 26
Full
Feb 3
Last Quarter
Feb 9
New
Feb 17
First Quarter

Hourly Weather History & Observations

Time (PST) Temp. Dew Point Humidity Pressure Visibility Wind Dir Wind Speed Gust Speed Precip Events Conditions
12:06 AM 57.2 °F 48.2 °F 72% 30.10 in 6.0 mi ENE 16.1 mph - 0.01 in Rain Light Rain
12:55 AM 55.9 °F 48.0 °F 75% 30.14 in 5.0 mi NE 13.8 mph - 0.05 in Rain Light Rain
1:55 AM 55.0 °F 48.9 °F 80% 30.13 in 4.0 mi ENE 16.1 mph 24.2 mph 0.11 in Rain Rain
2:40 AM 55.4 °F 50.0 °F 82% 30.11 in 8.0 mi ENE 13.8 mph - 0.03 in Rain Light Rain
2:53 AM 55.4 °F 50.0 °F 82% 30.10 in 7.0 mi ENE 15.0 mph - 0.05 in Rain Light Rain
2:55 AM 55.9 °F 50.0 °F 80% 30.12 in 7.0 mi ENE 15.0 mph - 0.05 in Rain Light Rain
3:55 AM 55.9 °F 51.1 °F 84% 30.11 in 4.0 mi ENE 13.8 mph - 0.04 in Rain Rain
4:55 AM 57.0 °F 52.0 °F 83% 30.12 in 5.0 mi ENE 12.7 mph - 0.10 in Rain Rain
5:55 AM 57.0 °F 53.1 °F 87% 30.12 in 5.0 mi East 9.2 mph - 0.05 in Rain Rain
6:51 AM 57.2 °F 53.6 °F 88% 30.10 in 5.0 mi ENE 11.5 mph - 0.09 in Rain Rain
6:55 AM 57.9 °F 54.0 °F 87% 30.12 in 6.0 mi ENE 11.5 mph - 0.09 in Rain Light Rain
7:52 AM 59.0 °F 55.4 °F 88% 30.12 in 10.0 mi ENE 10.4 mph - 0.04 in Rain Light Rain
7:55 AM 59.0 °F 55.0 °F 87% 30.14 in 10.0 mi ENE 8.1 mph - 0.04 in Rain Light Rain
8:18 AM 59.0 °F 55.4 °F 88% 30.13 in 4.0 mi ENE 9.2 mph - 0.02 in Rain Light Rain
8:26 AM 59.0 °F 55.4 °F 88% 30.13 in 4.0 mi ENE 10.4 mph - 0.03 in Rain Light Rain
8:55 AM 60.1 °F 55.9 °F 86% 30.17 in 4.0 mi ENE 10.4 mph - 0.04 in Rain Light Rain
9:35 AM 60.8 °F 55.4 °F 82% 30.16 in 2.0 mi ENE 10.4 mph - 0.05 in Rain Rain
9:55 AM 60.1 °F 55.9 °F 86% 30.19 in 7.0 mi ENE 12.7 mph - 0.06 in Rain Light Rain
10:55 AM 62.1 °F 55.9 °F 80% 30.19 in 10.0 mi ENE 12.7 mph - 0.01 in   Overcast
11:55 AM 62.1 °F 55.9 °F 80% 30.18 in 10.0 mi ENE 8.1 mph - N/A   Overcast
12:55 PM 62.1 °F 54.0 °F 75% 30.17 in 10.0 mi East 17.3 mph - N/A   Overcast
1:26 PM 64.4 °F 55.4 °F 73% 30.13 in 10.0 mi East 13.8 mph - N/A   Overcast
1:55 PM 64.0 °F 53.1 °F 67% 30.15 in 10.0 mi East 12.7 mph - N/A   Overcast
2:55 PM 64.9 °F 54.0 °F 68% 30.14 in 10.0 mi ENE 8.1 mph - N/A   Overcast
3:55 PM 64.9 °F 54.0 °F 68% 30.14 in 10.0 mi East 8.1 mph - N/A   Overcast
4:05 PM 64.4 °F 53.6 °F 68% 30.11 in 10.0 mi ENE 6.9 mph - N/A   Overcast
4:55 PM 64.9 °F 54.0 °F 68% 30.15 in 10.0 mi SE 3.5 mph - N/A   Overcast
5:55 PM 63.0 °F 55.0 °F 75% 30.15 in 10.0 mi Calm Calm - N/A   Overcast
6:55 PM 62.1 °F 54.0 °F 75% 30.15 in 10.0 mi Calm Calm - N/A   Partly Cloudy
7:55 PM 61.0 °F 54.0 °F 78% 30.14 in 10.0 mi North 4.6 mph - N/A   Clear
8:55 PM 60.1 °F 55.0 °F 83% 30.15 in 10.0 mi Calm Calm - N/A   Scattered Clouds
9:55 PM 59.0 °F 55.0 °F 87% 30.17 in 9.0 mi Calm Calm - 0.00 in Rain Light Rain
10:55 PM 59.0 °F 55.0 °F 87% 30.16 in 10.0 mi Calm Calm - 0.01 in   Mostly Cloudy
11:55 PM 61.0 °F 54.0 °F 78% 30.16 in 10.0 mi NE 5.8 mph - 0.00 in Rain Light Rain